星链-32107 (STARLINK-32107 )

导读

STARLINK-32107是美国SpaceX星链星座的卫星,于2024年5月8日发射升空,属于星链低轨互联网星座的组成部分。星链项目旨在为全球提供高速低延迟宽带互联网服务,该卫星入轨后,将进一步扩充星链星座的规模,提升星座全球覆盖与服务能力,助力星链完成部署目标。

Basic Information
目录编号:
59694
目录名称:
STARLINK-32107
国际标识:
2024-086N
轨道中心:
EARTH
卫星名称:
星链-32107
卫星全名:
星链-32107 (STARLINK-32107 )
卫星状态:
在轨 (已飞行857 天)
发射日期:
2024-05-08 UTC
国别 :
美国 (US)
星等 :
--
This satellite is enrolled in the Space Conjunction Data Service (SCDS) and the current flight risk assessment level is: High Risk
Orbit Information
数据来源 国际轨道数据 AOE轨道数据
星历时间 2026-09-12T03:24:30+0800
8小时前
查看轨道信息
2026-09-06T21:00:00+0800
5天前
查看轨道信息
半长轴 6861.252km 6861.187km
偏心率 0.0001149 0.000095
轨道倾角 43.002° 43.001°
近地点辐角 260.833° 300.271°
升交点赤经 89.048° 118.798°
平近点角 99.239° 221.044°
近地点 482.326km 482.398km
远地点 483.904km 483.702km
周期 94.268分钟 94.267分钟
每日圈数 15.275581 15.275798
Detailed Information
固有亮度:
5
最大亮度:
1.5
卫星平台:
Starlink v2.0 mini
覆盖范围:
全球
运营商:
太空探索技术公司
运营商所在国:
美国
制造商(研发单位):
太空探索技术公司
制造商所在国:
美国
使用方式:
暂无
Satellite Introduction
星链(Starlink)计划是由太空探索技术公司(SpaceX)提出的一个巨型低轨卫星互联网星座项目,计划在2019年至2024年间在太空搭建由约1.2万颗卫星组成的“星链”网络,其中1584颗将部署在地球上空550千米处的近地轨道,并从2020年开始工作。该卫星仍在工作。
2D Orbit Map
3D Orbit Map
Orbit Altitude Analysis Chart
Orbit Inclination Analysis Chart
Orbit Comprehensive Analysis Chart
View Comprehensive Chart
Miss Distance Evolution Trend with All Objects
Collision Probability Evolution Trend with All Objects